| time (UTC) | temp C | wind direction | speed KPH | gust KPH | rain 1hr cm | rain 24hr cm | rain mn cm | humidity % | barometer mb |
| 20260905010501 | 27 | 69 | 4.8 | 8.0 | 0.00 | 0.00 | 0.00 | 63 | 1013.4 |
| 20260905010002 | 27 | 81 | 3.2 | 11.3 | 0.00 | 0.00 | 0.00 | 63 | 1013.4 |
| 20260905005502 | 27 | 103 | 4.8 | 11.3 | 0.00 | 0.00 | 0.00 | 63 | 1013.5 |
| 20260905005002 | 27 | 85 | 3.2 | 9.7 | 0.00 | 0.00 | 0.00 | 63 | 1013.4 |
| 20260905004502 | 27 | 98 | 3.2 | 12.9 | 0.00 | 0.00 | 0.00 | 63 | 1013.5 |
| 20260905004001 | 27 | 71 | 6.4 | 12.9 | 0.00 | 0.00 | 0.00 | 62 | 1013.5 |
| 20260905003501 | 28 | 98 | 4.8 | 11.3 | 0.00 | 0.00 | 0.00 | 62 | 1013.4 |
| 20260905003008 | 28 | 105 | 3.2 | 12.9 | 0.00 | 0.00 | 0.00 | 61 | 1013.4 |
| 20260905002501 | 28 | 106 | 4.8 | 12.9 | 0.00 | 0.00 | 0.00 | 60 | 1013.3 |
| 20260905002003 | 28 | 107 | 4.8 | 14.5 | 0.00 | 0.00 | 0.00 | 59 | 1013.3 |
| 20260905001501 | 28 | 93 | 6.4 | 14.5 | 0.00 | 0.00 | 0.00 | 58 | 1013.2 |
| 20260905001100 | 28 | 97 | 4.8 | 14.5 | 0.00 | 0.00 | 0.00 | 57 | 1013.3 |
| 20260905000604 | 28 | 90 | 6.4 | 14.5 | 0.00 | 0.00 | 0.00 | 58 | 1013.3 |
| 20260905000100 | 28 | 107 | 8.0 | 16.1 | 0.00 | 0.00 | 0.00 | 57 | 1013.3 |
| 20260904235600 | 29 | 72 | 8.0 | 16.1 | 0.00 | 0.00 | 0.00 | 57 | 1013.1 |
| 20260904235104 | 29 | 111 | 8.0 | 14.5 | 0.00 | 0.00 | 0.00 | 57 | 1013.1 |
| 20260904234600 | 29 | 114 | 8.0 | 14.5 | 0.00 | 0.00 | 0.00 | 56 | 1013.1 |
| 20260904234100 | 29 | 65 | 4.8 | 14.5 | 0.00 | 0.00 | 0.00 | 57 | 1013.0 |
| 20260904233600 | 29 | 69 | 6.4 | 14.5 | 0.00 | 0.00 | 0.00 | 57 | 1013.2 |
| 20260904233059 | 29 | 105 | 6.4 | 12.9 | 0.00 | 0.00 | 0.00 | 56 | 1013.0 |
| 20260904232559 | 29 | 101 | 4.8 | 12.9 | 0.00 | 0.00 | 0.00 | 55 | 1013.1 |
| 20260904232058 | 29 | 96 | 6.4 | 14.5 | 0.00 | 0.00 | 0.00 | 55 | 1013.0 |
| 20260904231559 | 29 | 78 | 6.4 | 14.5 | 0.00 | 0.00 | 0.00 | 55 | 1013.0 |
| 20260904231058 | 29 | 95 | 6.4 | 14.5 | 0.00 | 0.00 | 0.00 | 55 | 1013.1 |
| 20260904230558 | 30 | 107 | 4.8 | 14.5 | 0.00 | 0.00 | 0.00 | 55 | 1013.2 |
| 20260904230109 | 30 | 71 | 4.8 | 14.5 | 0.00 | 0.00 | 0.00 | 54 | 1013.2 |
| 20260904225558 | 30 | 51 | 6.4 | 14.5 | 0.00 | 0.00 | 0.00 | 53 | 1013.0 |
| 20260904225058 | 30 | 119 | 4.8 | 12.9 | 0.00 | 0.00 | 0.00 | 53 | 1013.0 |
| 20260904224620 | 30 | 84 | 4.8 | 11.3 | 0.00 | 0.00 | 0.00 | 53 | 1013.2 |
| 20260904224057 | 30 | 94 | 4.8 | 11.3 | 0.00 | 0.00 | 0.00 | 53 | 1013.2 |
| 20260904223558 | 30 | 77 | 1.6 | 12.9 | 0.00 | 0.00 | 0.00 | 53 | 1013.3 |
| 20260904223109 | 30 | 10 | 3.2 | 14.5 | 0.00 | 0.00 | 0.00 | 53 | 1013.2 |
| 20260904222558 | 30 | 64 | 6.4 | 17.7 | 0.00 | 0.00 | 0.00 | 53 | 1013.2 |
| 20260904222057 | 30 | 131 | 4.8 | 17.7 | 0.00 | 0.00 | 0.00 | 52 | 1013.1 |
| 20260904221624 | 30 | 171 | 4.8 | 9.7 | 0.00 | 0.00 | 0.00 | 51 | 1013.1 |
| 20260904221056 | 30 | 115 | 1.6 | 16.1 | 0.00 | 0.00 | 0.00 | 51 | 1013.2 |
| 20260904220556 | 30 | 115 | 8.0 | 14.5 | 0.00 | 0.00 | 0.00 | 52 | 1013.3 |
| 20260904220056 | 30 | 118 | 3.2 | 9.7 | 0.00 | 0.00 | 0.00 | 53 | 1013.1 |
| 20260904215559 | 30 | 113 | 1.6 | 12.9 | 0.00 | 0.00 | 0.00 | 53 | 1013.2 |
| 20260904215058 | 30 | 126 | 6.4 | 12.9 | 0.00 | 0.00 | 0.00 | 53 | 1013.2 |
| 20260904214555 | 30 | 67 | 4.8 | 11.3 | 0.00 | 0.00 | 0.00 | 53 | 1013.1 |
| 20260904214055 | 30 | 56 | 6.4 | 11.3 | 0.00 | 0.00 | 0.00 | 52 | 1013.2 |
| 20260904213555 | 30 | 46 | 4.8 | 9.7 | 0.00 | 0.00 | 0.00 | 53 | 1013.2 |
| 20260904213059 | 30 | 355 | 3.2 | 9.7 | 0.00 | 0.00 | 0.00 | 52 | 1013.2 |
| 20260904212555 | 30 | 42 | 6.4 | 12.9 | 0.00 | 0.00 | 0.00 | 51 | 1013.3 |
| 20260904212058 | 30 | 97 | 1.6 | 12.9 | 0.00 | 0.00 | 0.00 | 52 | 1013.3 |
| 20260904211555 | 30 | 95 | 6.4 | 12.9 | 0.00 | 0.00 | 0.00 | 52 | 1013.2 |
| 20260904211054 | 30 | 65 | 4.8 | 9.7 | 0.00 | 0.00 | 0.00 | 53 | 1013.4 |
| 20260904210554 | 30 | 38 | 4.8 | 17.7 | 0.00 | 0.00 | 0.00 | 54 | 1013.3 |
| 20260904210057 | 30 | 49 | 8.0 | 17.7 | 0.00 | 0.00 | 0.00 | 54 | 1013.3 |
| 20260904205554 | 30 | 48 | 6.4 | 12.9 | 0.00 | 0.00 | 0.00 | 54 | 1013.4 |
| 20260904205053 | 30 | 94 | 4.8 | 14.5 | 0.00 | 0.00 | 0.00 | 53 | 1013.4 |
| 20260904204553 | 30 | 65 | 6.4 | 16.1 | 0.00 | 0.00 | 0.00 | 53 | 1013.5 |
| 20260904204056 | 30 | 79 | 8.0 | 16.1 | 0.00 | 0.00 | 0.00 | 53 | 1013.5 |
| 20260904203554 | 30 | 67 | 6.4 | 14.5 | 0.00 | 0.00 | 0.00 | 54 | 1013.5 |
| 20260904203052 | 30 | 98 | 4.8 | 14.5 | 0.00 | 0.00 | 0.00 | 54 | 1013.6 |
| 20260904202553 | 30 | 68 | 4.8 | 14.5 | 0.00 | 0.00 | 0.00 | 54 | 1013.6 |
| 20260904202052 | 30 | 68 | 4.8 | 14.5 | 0.00 | 0.00 | 0.00 | 54 | 1013.7 |
| 20260904201603 | 30 | 79 | 1.6 | 11.3 | 0.00 | 0.00 | 0.00 | 54 | 1013.5 |
| 20260904201050 | 30 | 113 | 4.8 | 14.5 | 0.00 | 0.00 | 0.00 | 53 | 1013.7 |
| 20260904200550 | 30 | 105 | 4.8 | 12.9 | 0.00 | 0.00 | 0.00 | 54 | 1013.7 |
| 20260904200109 | 30 | 67 | 4.8 | 14.5 | 0.00 | 0.00 | 0.00 | 54 | 1013.6 |
| 20260904195549 | 30 | 15 | 4.8 | 14.5 | 0.00 | 0.00 | 0.00 | 54 | 1013.6 |
| 20260904195049 | 30 | 51 | 3.2 | 11.3 | 0.00 | 0.00 | 0.00 | 55 | 1013.6 |
| 20260904194552 | 30 | 100 | 6.4 | 14.5 | 0.00 | 0.00 | 0.00 | 54 | 1013.6 |
| 20260904194048 | 30 | 82 | 8.0 | 14.5 | 0.00 | 0.00 | 0.00 | 55 | 1013.6 |
| 20260904193548 | 30 | 81 | 4.8 | 12.9 | 0.00 | 0.00 | 0.00 | 54 | 1013.7 |
| 20260904193048 | 30 | 56 | 3.2 | 12.9 | 0.00 | 0.00 | 0.00 | 56 | 1013.8 |
| 20260904192547 | 30 | 36 | 4.8 | 14.5 | 0.00 | 0.00 | 0.00 | 55 | 1013.9 |
| 20260904192049 | 30 | 84 | 8.0 | 16.1 | 0.00 | 0.00 | 0.00 | 55 | 1013.9 |
| 20260904191548 | 29 | 103 | 9.7 | 16.1 | 0.00 | 0.00 | 0.00 | 56 | 1013.9 |
| 20260904191045 | 29 | 111 | 6.4 | 17.7 | 0.00 | 0.00 | 0.00 | 54 | 1013.9 |
| 20260904190544 | 29 | 96 | 8.0 | 17.7 | 0.00 | 0.00 | 0.00 | 58 | 1013.9 |
| 20260904190043 | 29 | 83 | 4.8 | 16.1 | 0.00 | 0.00 | 0.00 | 57 | 1013.9 |
| 20260904185543 | 29 | 80 | 6.4 | 16.1 | 0.00 | 0.00 | 0.00 | 56 | 1014.0 |
| 20260904185045 | 28 | 113 | 1.6 | 16.1 | 0.00 | 0.00 | 0.00 | 61 | 1014.0 |
| 20260904184543 | 28 | 66 | 8.0 | 19.3 | 0.00 | 0.00 | 0.00 | 59 | 1014.1 |
| 20260904184041 | 29 | 105 | 4.8 | 12.9 | 0.00 | 0.00 | 0.00 | 60 | 1014.1 |
| 20260904183541 | 28 | 59 | 3.2 | 16.1 | 0.00 | 0.00 | 0.00 | 61 | 1014.2 |
| 20260904183042 | 28 | 16 | 4.8 | 11.3 | 0.00 | 0.00 | 0.00 | 60 | 1014.2 |
| 20260904182539 | 28 | 42 | 3.2 | 11.3 | 0.00 | 0.00 | 0.00 | 59 | 1014.1 |
| 20260904182039 | 28 | 355 | 4.8 | 12.9 | 0.00 | 0.00 | 0.00 | 59 | 1014.1 |
| 20260904181538 | 28 | 360 | 3.2 | 9.7 | 0.00 | 0.00 | 0.00 | 62 | 1014.1 |
| 20260904181037 | 28 | 74 | 4.8 | 16.1 | 0.00 | 0.00 | 0.00 | 61 | 1014.2 |
| 20260904180536 | 28 | 360 | 6.4 | 16.1 | 0.00 | 0.00 | 0.00 | 62 | 1014.2 |
| 20260904180037 | 27 | 35 | 4.8 | 17.7 | 0.00 | 0.00 | 0.00 | 62 | 1014.1 |
| 20260904175539 | 27 | 49 | 4.8 | 17.7 | 0.00 | 0.00 | 0.00 | 63 | 1014.2 |
| 20260904175034 | 27 | 24 | 4.8 | 14.5 | 0.00 | 0.00 | 0.00 | 64 | 1014.2 |
| 20260904174533 | 28 | 54 | 8.0 | 14.5 | 0.00 | 0.00 | 0.00 | 64 | 1014.2 |
| 20260904174032 | 27 | 304 | 1.6 | 16.1 | 0.00 | 0.00 | 0.00 | 65 | 1014.1 |
| 20260904173531 | 27 | 349 | 3.2 | 19.3 | 0.00 | 0.00 | 0.00 | 65 | 1014.1 |
| 20260904173030 | 27 | 17 | 9.7 | 19.3 | 0.00 | 0.00 | 0.00 | 66 | 1014.1 |
| 20260904172530 | 27 | 21 | 6.4 | 14.5 | 0.00 | 0.00 | 0.00 | 67 | 1014.1 |
| 20260904172028 | 27 | 25 | 4.8 | 16.1 | 0.00 | 0.00 | 0.00 | 66 | 1014.1 |
| 20260904171551 | 27 | 92 | 6.4 | 16.1 | 0.00 | 0.00 | 0.00 | 67 | 1014.1 |
| 20260904171024 | 26 | 10 | 6.4 | 14.5 | 0.00 | 0.00 | 0.00 | 68 | 1014.1 |
| 20260904170528 | 26 | 22 | 3.2 | 16.1 | 0.00 | 0.00 | 0.00 | 69 | 1014.0 |
| 20260904170022 | 26 | 57 | 4.8 | 16.1 | 0.00 | 0.00 | 0.00 | 69 | 1014.2 |
| 20260904165525 | 26 | 35 | 6.4 | 12.9 | 0.00 | 0.00 | 0.00 | 69 | 1014.1 |
| 20260904165019 | 26 | 21 | 6.4 | 12.9 | 0.00 | 0.00 | 0.00 | 71 | 1014.1 |
| 20260904164520 | 25 | 331 | 3.2 | 9.7 | 0.00 | 0.00 | 0.00 | 72 | 1014.2 |
| 20260904164021 | 25 | 35 | 3.2 | 12.9 | 0.00 | 0.00 | 0.00 | 72 | 1014.1 |
| 20260904163517 | 26 | 15 | 3.2 | 12.9 | 0.00 | 0.00 | 0.00 | 74 | 1014.0 |
| 20260904163036 | 25 | 15 | 1.6 | 9.7 | 0.00 | 0.00 | 0.00 | 74 | 1014.0 |
| 20260904162515 | 25 | 355 | 3.2 | 9.7 | 0.00 | 0.00 | 0.00 | 75 | 1014.0 |
| 20260904162016 | 25 | 5 | 3.2 | 9.7 | 0.00 | 0.00 | 0.00 | 75 | 1014.1 |
| 20260904161512 | 25 | 46 | 4.8 | 12.9 | 0.00 | 0.00 | 0.00 | 76 | 1014.1 |
| 20260904161010 | 25 | 5 | 3.2 | 16.1 | 0.00 | 0.00 | 0.00 | 77 | 1014.1 |
| 20260904160509 | 24 | 16 | 6.4 | 16.1 | 0.00 | 0.00 | 0.00 | 78 | 1014.1 |
| 20260904160008 | 24 | 5 | 4.8 | 12.9 | 0.00 | 0.00 | 0.00 | 80 | 1014.0 |
| 20260904155506 | 23 | 88 | 4.8 | 14.5 | 0.00 | 0.00 | 0.00 | 78 | 1014.0 |
| 20260904155005 | 23 | 333 | 3.2 | 14.5 | 0.00 | 0.00 | 0.00 | 80 | 1013.9 |
| 20260904154505 | 23 | 11 | 4.8 | 12.9 | 0.00 | 0.00 | 0.00 | 81 | 1013.8 |
| 20260904154003 | 23 | 84 | 4.8 | 11.3 | 0.00 | 0.00 | 0.00 | 79 | 1013.8 |
| 20260904153502 | 23 | 53 | 3.2 | 11.3 | 0.00 | 0.00 | 0.00 | 80 | 1013.8 |
| 20260904153115 | 23 | 5 | 3.2 | 11.3 | 0.00 | 0.00 | 0.00 | 81 | 1013.9 |
| 20260904152558 | 23 | 24 | 3.2 | 11.3 | 0.00 | 0.00 | 0.00 | 81 | 1013.8 |
| 20260904152057 | 23 | 355 | 4.8 | 12.9 | 0.00 | 0.00 | 0.00 | 81 | 1013.8 |
| 20260904151556 | 23 | 9 | 4.8 | 12.9 | 0.00 | 0.00 | 0.00 | 82 | 1013.9 |
| 20260904151054 | 22 | 9 | 1.6 | 9.7 | 0.00 | 0.00 | 0.00 | 82 | 1013.9 |
| 20260904150552 | 22 | 24 | 3.2 | 8.0 | 0.00 | 0.00 | 0.00 | 83 | 1013.9 |
| 20260904150053 | 22 | 343 | 1.6 | 8.0 | 0.00 | 0.00 | 0.00 | 84 | 1013.9 |
| 20260904145549 | 22 | 335 | 3.2 | 8.0 | 0.00 | 0.00 | 0.00 | 85 | 1013.8 |
| 20260904145049 | 21 | 9 | 3.2 | 6.4 | 0.00 | 0.00 | 0.00 | 84 | 1013.8 |
| 20260904144554 | 22 | 16 | 1.6 | 4.8 | 0.00 | 0.00 | 0.00 | 84 | 1013.8 |
| 20260904144045 | 21 | 73 | 1.6 | 6.4 | 0.00 | 0.00 | 0.00 | 85 | 1013.7 |
| 20260904143544 | 21 | 18 | 1.6 | 6.4 | 0.00 | 0.00 | 0.00 | 87 | 1013.9 |
| 20260904143054 | 21 | 51 | 1.6 | 6.4 | 0.00 | 0.00 | 0.00 | 87 | 1013.7 |
| 20260904142541 | 20 | 19 | 1.6 | 8.0 | 0.00 | 0.00 | 0.00 | 90 | 1013.8 |
| 20260904142040 | 20 | 5 | 4.8 | 8.0 | 0.00 | 0.00 | 0.00 | 90 | 1013.8 |
| 20260904141540 | 19 | 43 | 3.2 | 8.0 | 0.00 | 0.00 | 0.00 | 90 | 1013.9 |
| 20260904141036 | 19 | 20 | 1.6 | 8.0 | 0.00 | 0.00 | 0.00 | 91 | 1013.9 |
| 20260904140538 | 19 | 15 | 0.0 | 9.7 | 0.00 | 0.00 | 0.00 | 91 | 1013.7 |
| 20260904140040 | 18 | 5 | 3.2 | 9.7 | 0.00 | 0.00 | 0.00 | 92 | 1013.7 |
| 20260904135537 | 18 | 24 | 3.2 | 9.7 | 0.00 | 0.00 | 0.00 | 93 | 1013.6 |
| 20260904135035 | 18 | 5 | 1.6 | 6.4 | 0.00 | 0.00 | 0.00 | 93 | 1013.7 |
| 20260904134534 | 18 | 5 | 1.6 | 6.4 | 0.00 | 0.00 | 0.00 | 94 | 1013.7 |
| 20260904134034 | 18 | 341 | 3.2 | 6.4 | 0.00 | 0.00 | 0.00 | 94 | 1013.6 |
| 20260904133535 | 17 | 360 | 0.0 | 4.8 | 0.00 | 0.00 | 0.00 | 94 | 1013.7 |
| 20260904133033 | 17 | 335 | 0.0 | 6.4 | 0.00 | 0.00 | 0.00 | 95 | 1013.6 |
| 20260904132534 | 17 | 18 | 1.6 | 6.4 | 0.00 | 0.00 | 0.00 | 95 | 1013.7 |
| 20260904132033 | 17 | 350 | 0.0 | 4.8 | 0.00 | 0.00 | 0.00 | 95 | 1013.6 |
| 20260904131534 | 17 | 330 | 0.0 | 4.8 | 0.00 | 0.00 | 0.00 | 95 | 1013.7 |
| 20260904131030 | 17 | 360 | 0.0 | 8.0 | 0.00 | 0.00 | 0.00 | 95 | 1013.5 |
| 20260904130531 | 17 | 5 | 3.2 | 8.0 | 0.00 | 0.00 | 0.00 | 95 | 1013.4 |
| 20260904130029 | 17 | 5 | 1.6 | 8.0 | 0.00 | 0.00 | 0.00 | 95 | 1013.1 |
| 20260904125529 | 16 | 19 | 1.6 | 8.0 | 0.00 | 0.00 | 0.00 | 95 | 1013.2 |
| 20260904125031 | 16 | 13 | 1.6 | 8.0 | 0.00 | 0.00 | 0.00 | 95 | 1013.2 |
| 20260904124528 | 16 | 23 | 0.0 | 4.8 | 0.00 | 0.00 | 0.00 | 95 | 1013.1 |
| 20260904124031 | 16 | 18 | 1.6 | 6.4 | 0.00 | 0.00 | 0.00 | 95 | 1013.0 |
| 20260904123531 | 16 | 340 | 1.6 | 4.8 | 0.00 | 0.00 | 0.00 | 95 | 1013.1 |
| 20260904123027 | 16 | 333 | 1.6 | 4.8 | 0.00 | 0.00 | 0.00 | 95 | 1013.1 |
| 20260904122527 | 16 | 333 | 0.0 | 4.8 | 0.00 | 0.00 | 0.00 | 95 | 1013.1 |
| 20260904122026 | 16 | 331 | 0.0 | 8.0 | 0.00 | 0.00 | 0.00 | 95 | 1013.0 |
| 20260904121524 | 16 | 331 | 0.0 | 8.0 | 0.00 | 0.00 | 0.00 | 95 | 1012.8 |
| 20260904121021 | 16 | 360 | 0.0 | 4.8 | 0.00 | 0.00 | 0.00 | 95 | 1012.7 |
| 20260904120521 | 16 | 5 | 1.6 | 6.4 | 0.00 | 0.00 | 0.00 | 95 | 1012.6 |
| 20260904120032 | 16 | 355 | 1.6 | 8.0 | 0.00 | 0.00 | 0.00 | 95 | 1012.4 |
| 20260904115520 | 16 | 22 | 3.2 | 9.7 | 0.00 | 0.00 | 0.00 | 95 | 1012.4 |
| 20260904115021 | 16 | 355 | 3.2 | 6.4 | 0.00 | 0.00 | 0.00 | 95 | 1012.3 |
| 20260904114520 | 16 | 348 | 0.0 | 4.8 | 0.00 | 0.00 | 0.00 | 95 | 1012.4 |
| 20260904114020 | 16 | 360 | 0.0 | 8.0 | 0.00 | 0.00 | 0.00 | 95 | 1012.4 |
| 20260904113520 | 16 | 341 | 1.6 | 4.8 | 0.00 | 0.00 | 0.00 | 95 | 1012.4 |
| 20260904113019 | 16 | 337 | 1.6 | 6.4 | 0.00 | 0.00 | 0.00 | 95 | 1012.5 |
| 20260904112517 | 16 | 348 | 0.0 | 6.4 | 0.00 | 0.00 | 0.00 | 95 | 1012.4 |
| 20260904112017 | 16 | 9 | 0.0 | 4.8 | 0.00 | 0.00 | 0.00 | 95 | 1012.2 |
| 20260904111521 | 16 | 5 | 0.0 | 4.8 | 0.00 | 0.00 | 0.00 | 94 | 1012.2 |
| 20260904111016 | 16 | 5 | 0.0 | 6.4 | 0.00 | 0.00 | 0.00 | 94 | 1012.3 |
| 20260904110515 | 16 | 355 | 0.0 | 6.4 | 0.00 | 0.00 | 0.00 | 94 | 1012.1 |
| 20260904110015 | 16 | 342 | 1.6 | 8.0 | 0.00 | 0.00 | 0.00 | 94 | 1012.1 |
| 20260904105515 | 16 | 32 | 1.6 | 8.0 | 0.00 | 0.00 | 0.00 | 95 | 1012.1 |
| 20260904105014 | 16 | 22 | 3.2 | 9.7 | 0.00 | 0.00 | 0.00 | 94 | 1012.1 |
| 20260904104513 | 16 | 5 | 3.2 | 9.7 | 0.00 | 0.00 | 0.00 | 94 | 1011.9 |
| 20260904104016 | 16 | 5 | 3.2 | 9.7 | 0.00 | 0.00 | 0.00 | 94 | 1011.8 |
| 20260904103518 | 16 | 342 | 1.6 | 6.4 | 0.00 | 0.00 | 0.00 | 94 | 1012.0 |
| 20260904103013 | 16 | 9 | 0.0 | 4.8 | 0.00 | 0.00 | 0.00 | 94 | 1012.0 |
| 20260904102513 | 16 | 9 | 0.0 | 6.4 | 0.00 | 0.00 | 0.00 | 94 | 1012.0 |
| 20260904102012 | 16 | 333 | 1.6 | 9.7 | 0.00 | 0.00 | 0.00 | 94 | 1012.0 |
| 20260904101517 | 16 | 347 | 3.2 | 9.7 | 0.00 | 0.00 | 0.00 | 94 | 1011.8 |
| 20260904101018 | 17 | 338 | 3.2 | 8.0 | 0.00 | 0.00 | 0.00 | 94 | 1011.8 |
| 20260904100510 | 17 | 35 | 3.2 | 8.0 | 0.00 | 0.00 | 0.00 | 94 | 1011.7 |
| 20260904100010 | 17 | 355 | 1.6 | 8.0 | 0.00 | 0.00 | 0.00 | 94 | 1011.7 |
| 20260904095509 | 17 | 332 | 3.2 | 9.7 | 0.00 | 0.00 | 0.00 | 94 | 1011.6 |
| 20260904095007 | 17 | 340 | 3.2 | 8.0 | 0.00 | 0.00 | 0.00 | 93 | 1011.6 |
| 20260904094506 | 17 | 11 | 0.0 | 12.9 | 0.00 | 0.00 | 0.00 | 93 | 1011.5 |
| 20260904094006 | 17 | 335 | 3.2 | 12.9 | 0.00 | 0.00 | 0.00 | 94 | 1011.4 |
| 20260904093508 | 17 | 24 | 1.6 | 12.9 | 0.00 | 0.00 | 0.00 | 93 | 1011.4 |
| 20260904093006 | 17 | 19 | 3.2 | 9.7 | 0.00 | 0.00 | 0.00 | 93 | 1011.4 |
| 20260904092505 | 17 | 30 | 3.2 | 9.7 | 0.00 | 0.00 | 0.00 | 93 | 1011.4 |
| 20260904092005 | 17 | 360 | 3.2 | 9.7 | 0.00 | 0.00 | 0.00 | 93 | 1011.4 |
| 20260904091505 | 17 | 31 | 3.2 | 8.0 | 0.00 | 0.00 | 0.00 | 93 | 1011.3 |
| 20260904091005 | 17 | 28 | 0.0 | 6.4 | 0.00 | 0.00 | 0.00 | 93 | 1011.4 |
| 20260904090505 | 17 | 5 | 1.6 | 6.4 | 0.00 | 0.00 | 0.00 | 93 | 1011.2 |
| 20260904090004 | 17 | 13 | 3.2 | 6.4 | 0.00 | 0.00 | 0.00 | 93 | 1011.1 |
| 20260904085504 | 17 | 11 | 1.6 | 6.4 | 0.00 | 0.00 | 0.00 | 93 | 1011.0 |
| 20260904085001 | 17 | 342 | 1.6 | 4.8 | 0.00 | 0.00 | 0.00 | 93 | 1011.0 |
| 20260904084501 | 17 | 344 | 0.0 | 4.8 | 0.00 | 0.00 | 0.00 | 93 | 1010.9 |
| 20260904084000 | 17 | 344 | 1.6 | 6.4 | 0.00 | 0.00 | 0.00 | 93 | 1010.8 |
| 20260904083604 | 17 | 5 | 1.6 | 6.4 | 0.00 | 0.00 | 0.00 | 93 | 1010.8 |
| 20260904083104 | 17 | 360 | 1.6 | 8.0 | 0.00 | 0.00 | 0.00 | 93 | 1010.7 |
| 20260904082600 | 17 | 18 | 1.6 | 8.0 | 0.00 | 0.00 | 0.00 | 93 | 1010.7 |
| 20260904082100 | 17 | 319 | 1.6 | 8.0 | 0.00 | 0.00 | 0.00 | 93 | 1010.8 |
| 20260904081600 | 17 | 355 | 1.6 | 8.0 | 0.00 | 0.00 | 0.00 | 93 | 1010.7 |
| 20260904081059 | 17 | 9 | 1.6 | 8.0 | 0.00 | 0.00 | 0.00 | 93 | 1010.8 |
| 20260904080602 | 17 | 5 | 0.0 | 6.4 | 0.00 | 0.00 | 0.00 | 93 | 1010.7 |
| 20260904080117 | 17 | 360 | 0.0 | 6.4 | 0.00 | 0.00 | 0.00 | 93 | 1010.8 |
| 20260904075602 | 17 | 5 | 0.0 | 6.4 | 0.00 | 0.00 | 0.00 | 93 | 1010.8 |
| 20260904075057 | 17 | 5 | 0.0 | 6.4 | 0.00 | 0.00 | 0.00 | 92 | 1010.7 |
| 20260904074556 | 17 | 325 | 1.6 | 6.4 | 0.00 | 0.00 | 0.00 | 93 | 1010.7 |
| 20260904074059 | 17 | 331 | 1.6 | 9.7 | 0.00 | 0.00 | 0.00 | 93 | 1010.6 |
| 20260904073555 | 18 | 340 | 3.2 | 9.7 | 0.00 | 0.00 | 0.00 | 93 | 1010.6 |
| 20260904073054 | 18 | 13 | 3.2 | 6.4 | 0.00 | 0.00 | 0.00 | 92 | 1010.6 |
| 20260904072557 | 18 | 355 | 3.2 | 6.4 | 0.00 | 0.00 | 0.00 | 92 | 1010.7 |
| 20260904072057 | 18 | 5 | 0.0 | 8.0 | 0.00 | 0.00 | 0.00 | 92 | 1010.6 |
| 20260904071554 | 18 | 360 | 1.6 | 6.4 | 0.00 | 0.00 | 0.00 | 92 | 1010.6 |
| 20260904071053 | 18 | 355 | 1.6 | 8.0 | 0.00 | 0.00 | 0.00 | 92 | 1010.7 |
| 20260904070552 | 18 | 355 | 1.6 | 8.0 | 0.00 | 0.00 | 0.00 | 92 | 1010.6 |
| 20260904070058 | 18 | 360 | 1.6 | 8.0 | 0.00 | 0.00 | 0.00 | 92 | 1010.6 |
| 20260904065553 | 18 | 5 | 1.6 | 9.7 | 0.00 | 0.00 | 0.00 | 91 | 1010.6 |
| 20260904065051 | 18 | 345 | 1.6 | 9.7 | 0.00 | 0.00 | 0.00 | 91 | 1010.7 |
| 20260904064551 | 18 | 355 | 3.2 | 14.5 | 0.00 | 0.00 | 0.00 | 91 | 1010.5 |
| 20260904064050 | 18 | 42 | 4.8 | 14.5 | 0.00 | 0.00 | 0.00 | 91 | 1010.5 |
| 20260904063549 | 18 | 5 | 4.8 | 16.1 | 0.00 | 0.00 | 0.00 | 91 | 1010.4 |
| 20260904063109 | 18 | 5 | 4.8 | 16.1 | 0.00 | 0.00 | 0.00 | 90 | 1010.4 |
| 20260904062547 | 18 | 40 | 4.8 | 12.9 | 0.00 | 0.00 | 0.00 | 90 | 1010.3 |
| 20260904062047 | 18 | 17 | 3.2 | 12.9 | 0.00 | 0.00 | 0.00 | 90 | 1010.3 |
| 20260904061546 | 19 | 26 | 4.8 | 16.1 | 0.00 | 0.00 | 0.00 | 90 | 1010.3 |
| 20260904061047 | 19 | 342 | 6.4 | 16.1 | 0.00 | 0.00 | 0.00 | 89 | 1010.2 |
| 20260904060543 | 19 | 30 | 6.4 | 14.5 | 0.00 | 0.00 | 0.00 | 89 | 1010.3 |
| 20260904060049 | 19 | 26 | 3.2 | 12.9 | 0.00 | 0.00 | 0.00 | 89 | 1010.3 |
| 20260904055542 | 19 | 5 | 3.2 | 12.9 | 0.00 | 0.00 | 0.00 | 89 | 1010.3 |
| 20260904055042 | 19 | 24 | 6.4 | 12.9 | 0.00 | 0.00 | 0.00 | 89 | 1010.3 |
| 20260904054546 | 20 | 13 | 4.8 | 12.9 | 0.00 | 0.00 | 0.00 | 89 | 1010.4 |
| 20260904054043 | 20 | 26 | 4.8 | 14.5 | 0.00 | 0.00 | 0.00 | 88 | 1010.3 |
| 20260904053540 | 20 | 17 | 6.4 | 14.5 | 0.00 | 0.00 | 0.00 | 89 | 1010.3 |
| 20260904053054 | 20 | 23 | 4.8 | 16.1 | 0.00 | 0.00 | 0.00 | 89 | 1010.3 |
| 20260904052539 | 20 | 343 | 4.8 | 16.1 | 0.00 | 0.00 | 0.00 | 89 | 1010.2 |
| 20260904052040 | 20 | 30 | 6.4 | 12.9 | 0.00 | 0.00 | 0.00 | 89 | 1010.0 |
| 20260904051538 | 20 | 21 | 4.8 | 16.1 | 0.00 | 0.00 | 0.00 | 89 | 1009.8 |
| 20260904051037 | 20 | 360 | 6.4 | 16.1 | 0.00 | 0.00 | 0.00 | 89 | 1009.6 |
| 20260904050535 | 20 | 71 | 4.8 | 12.9 | 0.00 | 0.00 | 0.00 | 89 | 1009.4 |
| 20260904050034 | 20 | 14 | 4.8 | 17.7 | 0.00 | 0.00 | 0.00 | 89 | 1009.4 |
| 20260904045534 | 20 | 24 | 6.4 | 19.3 | 0.00 | 0.00 | 0.00 | 89 | 1009.6 |
| 20260904045034 | 20 | 32 | 8.0 | 19.3 | 0.00 | 0.00 | 0.00 | 89 | 1009.5 |
| 20260904044537 | 20 | 24 | 6.4 | 24.1 | 0.00 | 0.00 | 0.00 | 89 | 1009.4 |
| 20260904044034 | 20 | 85 | 9.7 | 24.1 | 0.00 | 0.00 | 0.00 | 90 | 1009.4 |
| 20260904043533 | 20 | 344 | 8.0 | 19.3 | 0.00 | 0.00 | 0.00 | 90 | 1009.4 |
| 20260904043040 | 20 | 34 | 11.3 | 20.9 | 0.00 | 0.00 | 0.00 | 90 | 1009.4 |
| 20260904042533 | 20 | 22 | 8.0 | 20.9 | 0.00 | 0.00 | 0.00 | 90 | 1009.4 |
| 20260904042035 | 20 | 30 | 6.4 | 17.7 | 0.00 | 0.00 | 0.00 | 90 | 1009.4 |
| 20260904041532 | 20 | 25 | 8.0 | 16.1 | 0.00 | 0.00 | 0.00 | 90 | 1009.3 |
| 20260904041032 | 20 | 15 | 8.0 | 19.3 | 0.00 | 0.00 | 0.00 | 90 | 1009.3 |
| 20260904040531 | 19 | 355 | 8.0 | 19.3 | 0.00 | 0.00 | 0.00 | 90 | 1009.2 |
| 20260904040031 | 20 | 27 | 6.4 | 19.3 | 0.00 | 0.00 | 0.00 | 90 | 1009.3 |
| 20260904035531 | 20 | 5 | 8.0 | 19.3 | 0.00 | 0.00 | 0.00 | 89 | 1009.2 |
| 20260904035031 | 20 | 346 | 9.7 | 20.9 | 0.00 | 0.00 | 0.00 | 89 | 1009.1 |
| 20260904034530 | 20 | 342 | 9.7 | 22.5 | 0.00 | 0.00 | 0.00 | 89 | 1009.2 |
| 20260904034030 | 20 | 347 | 9.7 | 22.5 | 0.00 | 0.00 | 0.00 | 88 | 1009.2 |
| 20260904033533 | 20 | 5 | 6.4 | 24.1 | 0.00 | 0.00 | 0.00 | 87 | 1008.9 |
| 20260904033032 | 20 | 307 | 14.5 | 24.1 | 0.00 | 0.00 | 0.00 | 87 | 1009.3 |
| 20260904032528 | 20 | 17 | 6.4 | 16.1 | 0.00 | 0.00 | 0.00 | 86 | 1008.5 |
| 20260904032029 | 21 | 22 | 6.4 | 16.1 | 0.00 | 0.00 | 0.00 | 86 | 1008.2 |
| 20260904031529 | 21 | 338 | 6.4 | 16.1 | 0.00 | 0.00 | 0.00 | 85 | 1008.4 |
| 20260904031029 | 21 | 324 | 6.4 | 14.5 | 0.00 | 0.00 | 0.00 | 85 | 1008.3 |
| 20260904030531 | 21 | 36 | 4.8 | 12.9 | 0.00 | 0.00 | 0.00 | 84 | 1008.3 |
| 20260904030035 | 21 | 48 | 1.6 | 12.9 | 0.00 | 0.00 | 0.00 | 84 | 1008.4 |
| 20260904025527 | 21 | 339 | 1.6 | 12.9 | 0.00 | 0.00 | 0.00 | 84 | 1008.2 |
| 20260904025027 | 22 | 295 | 4.8 | 12.9 | 0.00 | 0.00 | 0.00 | 83 | 1008.1 |
| 20260904024527 | 22 | 312 | 3.2 | 12.9 | 0.00 | 0.00 | 0.00 | 84 | 1008.0 |
| 20260904024029 | 22 | 328 | 1.6 | 12.9 | 0.00 | 0.00 | 0.00 | 83 | 1008.0 |
| 20260904023530 | 22 | 328 | 3.2 | 14.5 | 0.00 | 0.00 | 0.00 | 83 | 1008.0 |
| 20260904023026 | 22 | 326 | 4.8 | 14.5 | 0.00 | 0.00 | 0.00 | 83 | 1008.0 |
| 20260904022526 | 22 | 313 | 4.8 | 8.0 | 0.00 | 0.00 | 0.00 | 83 | 1007.9 |
| 20260904022029 | 22 | 52 | 0.0 | 1.6 | 0.00 | 0.00 | 0.00 | 82 | 1007.6 |
| 20260904021530 | 22 | 52 | 0.0 | 3.2 | 0.00 | 0.00 | 0.00 | 82 | 1007.4 |
| 20260904021026 | 22 | 52 | 0.0 | 4.8 | 0.00 | 0.00 | 0.00 | 82 | 1007.4 |
| 20260904020525 | 22 | 51 | 1.6 | 6.4 | 0.00 | 0.00 | 0.00 | 82 | 1007.2 |
| 20260904020025 | 22 | 53 | 1.6 | 6.4 | 0.00 | 0.00 | 0.00 | 82 | 1007.0 |
| 20260904015530 | 22 | 93 | 3.2 | 6.4 | 0.00 | 0.00 | 0.00 | 82 | 1007.0 |
| 20260904015027 | 22 | 103 | 3.2 | 6.4 | 0.00 | 0.00 | 0.00 | 82 | 1007.0 |
| 20260904014525 | 22 | 72 | 3.2 | 6.4 | 0.00 | 0.00 | 0.00 | 82 | 1007.1 |
| 20260904014027 | 22 | 96 | 3.2 | 6.4 | 0.00 | 0.00 | 0.00 | 81 | 1007.1 |
| 20260904013524 | 22 | 102 | 3.2 | 6.4 | 0.00 | 0.00 | 0.00 | 81 | 1007.0 |
| 20260904013024 | 22 | 81 | 3.2 | 9.7 | 0.00 | 0.00 | 0.00 | 80 | 1007.0 |
| 20260904012524 | 22 | 55 | 4.8 | 9.7 | 0.00 | 0.00 | 0.00 | 80 | 1007.1 |
| 20260904012024 | 22 | 53 | 3.2 | 8.0 | 0.00 | 0.00 | 0.00 | 80 | 1007.0 |
| 20260904011525 | 22 | 59 | 1.6 | 8.0 | 0.00 | 0.00 | 0.00 | 80 | 1006.9 |
| 20260904011024 | 22 | 49 | 1.6 | 8.0 | 0.00 | 0.00 | 0.00 | 80 | 1007.0 |